This demonstration page uses our WeatherBlox Daily Observations layout. Learn more.

38.89511, -77.03637

Hourly Observations for March 16, 2015

Temp ( °F °C ) Dew Point ( °F °C ) Humidity (%) Winds ( mph kmh ) Pressure ( in mb ) Visibility ( mi km ) Precip ( " mm )
12:52 am 00:52 Partly Cloudy 45 7 28 -2 53 53 N 5 7 30.12 1020 10 16.09344 0 0
1:52 am 01:52 Partly Cloudy 45 7 28 -2 53 53 NNW 6 9 30.12 1020 10 16.09344 0 0
2:52 am 02:52 Partly Cloudy 41 5 30 -1 66 66 Calm 30.12 1020 10 16.09344 0 0
3:52 am 03:52 Mostly Cloudy 43 6 32 0 66 66 Calm 30.12 1020 10 16.09344 0 0
4:52 am 04:52 Mostly Cloudy 39 4 32 0 75 75 Calm 30.12 1020 10 16.09344 0 0
5:52 am 05:52 Mostly Cloudy 39 4 30 -1 70 70 Calm 30.12 1020 10 16.09344 0 0
6:52 am 06:52 Mostly Cloudy 39 4 32 0 75 75 Calm 30.12 1020 10 16.09344 0 0
7:52 am 07:52 Cloudy 39 4 36 2 87 87 S 7 11 30.09 1019 9 14.484096 0 0
8:52 am 08:52 Cloudy 43 6 34 1 71 71 S 7 11 30.09 1019 10 16.09344 0 0
9:52 am 09:52 Cloudy 43 6 34 1 71 71 S 8 13 30.06 1018 10 16.09344 0 0
10:52 am 10:52 Cloudy 46 8 34 1 62 62 S 8 13 30.03 1017 10 16.09344 0 0
11:52 am 11:52 Cloudy 50 10 34 1 54 54 S 8 13 30 1016 10 16.09344 0 0
12:52 pm 12:52 Cloudy 55 13 36 2 47 47 S 7 11 29.97 1015 10 16.09344 0 0
1:52 pm 13:52 Cloudy 59 15 36 2 42 42 S 6 9 29.94 1014 10 16.09344 0 0
2:52 pm 14:52 Cloudy 63 17 37 3 39 39 S 7 11 29.88 1012 10 16.09344 0 0
3:52 pm 15:52 Mostly Cloudy 64 18 36 2 34 34 S 3 6 29.88 1012 10 16.09344 0 0
4:52 pm 16:52 Mostly Cloudy 66 19 37 3 35 35 Calm 29.85 1011 10 16.09344 0 0
5:52 pm 17:52 Mostly Cloudy 68 20 37 3 33 33 Calm 29.85 1011 10 16.09344 0 0
6:52 pm 18:52 Mostly Cloudy 64 18 37 3 37 37 ENE 5 7 29.88 1012 10 16.09344 0 0
7:52 pm 19:52 Mostly Cloudy 59 15 37 3 45 45 Calm 29.88 1012 10 16.09344 0 0
8:52 pm 20:52 Mostly Cloudy 57 14 37 3 48 48 Calm 29.88 1012 10 16.09344 0 0
9:52 pm 21:52 Mostly Cloudy 55 13 37 3 51 51 Calm 29.88 1012 10 16.09344 0 0
10:52 pm 22:52 Mostly Cloudy 54 12 37 3 54 54 S 5 7 29.88 1012 10 16.09344 0 0
11:52 pm 23:52 Cloudy 54 12 37 3 54 54 S 5 7 29.85 1011 10 16.09344 0 0

Powered by AerisWeather